Wind_Speed
2 6 11 11 7 4 2 4 9 5 5 7 11 13 10 13 15 16 15 14 15 16 18 18 19 20 18 17 17 17 18 17 16 17 16 12 14 14 12 12 12 9 8 8
4 14 10 2 5 5 5 8 10 3 4 7 4 12 12 12 19 18 18 17 18 17 12 16 19 22 22 20 19 18 19 20 20 17 16 12 14 13 12 13 13 12 11 12
10 1 6 8 7 7 9 11 8 8 4 4 5 8 10 12 17 16 19 19 18 18 17 13 19 23 21 23 23 22 21 21 20 18 14 12 12 10 13 13 12 14 13 13
7 6 5 4 13 9 15 8 13 6 4 4 4 5 5 8 14 18 19 19 19 17 16 14 18 21 24 26 23 21 21 23 22 22 18 17 16 15 16 14 12 12 12 13
7 7 11 14 13 12 10 3 3 5 5 3 5 4 4 3 9 18 21 22 22 21 19 18 20 24 25 22 25 22 21 23 22 24 21 20 16 14 10 12 12 13 13 14
12 1 4 9 7 12 9 9 8 5 1 4 2 6 11 5 6 4 12 22 22 21 20 18 24 21 21 21 22 22 22 23 23 23 25 22 20 15 13 13 12 11 13 14
7 14 8 4 6 6 7 6 2 3 4 6 1 5 11 15 11 12 9 15 20 21 19 18 18 22 23 24 26 24 24 28 25 24 22 24 23 20 17 16 12 11 12 13
3 4 11 11 16 7 10 11 6 7 6 8 2 5 6 5 4 6 8 8 14 19 20 20 20 23 23 24 23 22 22 26 25 29 25 24 24 21 21 17 14 12 13 13
4 4 3 4 4 10 6 7 5 3 2 3 3 7 14 8 5 8 9 7 12 18 19 21 21 26 22 22 25 28 30 24 31 30 28 25 24 24 23 22 21 16 16 14
5 8 2 5 5 5 6 10 4 2 5 9 5 6 10 16 12 7 7 9 10 14 17 17 17 22 22 21 23 26 34 41 33 27 27 26 25 23 24 22 24 23 22 21
10 6 5 2 6 9 4 4 1 2 2 8 9 5 5 11 7 6 8 9 10 11 15 15 15 21 22 19 22 26 29 28 30 29 24 28 24 25 22 21 24 24 26 25
11 5 8 15 2 3 3 5 9 7 6 2 4 9 3 6 6 5 8 7 8 9 12 14 14 17 18 20 21 25 25 26 30 28 26 25 25 21 23 24 23 24 26 27
9 6 5 6 4 2 7 9 8 4 1 9 9 9 3 4 6 7 10 10 7 7 9 10 11 12 15 16 17 20 22 23 21 23 24 24 25 25 25 25 26 25 26 28
9 6 8 11 4 3 4 6 12 14 7 9 11 16 13 9 9 8 9 10 9 8 9 11 11 10 14 16 18 19 19 18 19 20 22 24 24 27 25 24 24 24 27 25
4 8 8 14 13 6 11 18 13 14 18 11 14 11 17 14 5 10 11 11 12 10 10 10 11 11 14 13 12 12 12 14 17 18 20 23 23 22 22 24 26 24 24 25
1 5 3 9 12 12 14 18 12 16 10 14 7 11 12 5 5 9 12 14 14 13 12 11 10 11 14 14 13 11 10 9 12 14 16 17 17 17 19 21 20 21 21 23
4 3 3 14 8 9 13 20 12 12 12 15 12 11 8 7 9 10 11 14 16 16 16 15 13 11 14 15 13 11 8 7 8 10 10 11 12 15 18 18 16 19 20 19
7 4 2 7 3 19 10 5 15 16 16 16 7 8 11 7 1 4 11 15 14 14 14 15 14 18 16 15 13 12 10 8 8 7 6 7 10 12 12 13 17 19 19 19
16 10 6 7 11 11 11 2 5 12 19 14 15 9 2 3 4 9 9 11 15 17 15 15 17 17 18 18 16 14 12 9 9 8 6 4 4 5 5 8 13 15 16 17
15 14 9 8 11 19 10 4 5 4 13 2 6 12 4 5 5 3 3 9 13 15 21 22 19 19 18 18 17 16 13 11 10 9 8 7 6 5 4 4 5 5 5 8
4 5 14 15 14 14 1 4 3 11 2 3 3 3 4 6 1 3 7 4 10 15 22 24 21 19 19 19 18 19 17 14 13 12 10 8 8 7 7 6 5 5 4 4
16 14 12 8 12 18 5 2 5 3 3 4 5 5 7 7 9 8 6 6 11 15 22 24 23 20 20 21 21 19 18 17 14 12 11 10 10 9 7 6 5 4 4 5
9 6 8 6 5 2 1 3 3 2 2 2 6 7 8 9 9 10 7 8 12 16 22 24 24 24 22 21 21 21 19 18 17 13 11 10 8 7 6 7 6 5 5 6
4 3 6 5 5 1 3 2 3 1 3 6 7 10 9 10 12 13 8 7 11 17 23 27 26 25 24 22 20 18 22 21 17 14 12 9 7 7 6 6 5 6 6 4
8 4 6 7 9 5 4 2 3 1 3 6 6 8 9 10 12 11 8 6 10 16 21 25 26 26 26 22 18 18 20 20 17 14 11 10 8 6 7 6 5 4 3 3
13 15 9 10 4 3 6 6 3 8 8 5 6 9 9 8 10 10 5 5 10 15 19 21 22 25 25 21 18 16 19 19 17 13 10 9 10 8 6 7 7 6 6 4
Wind_Direction
129 214 211 215 213 146 167 280 293 302 176 203 239 262 244 209 214 224 220 216 218 224 231 231 218 210 205 201 197 194 190 196 188 185 183 196 200 207 214 215 211 221 216 199
168 229 218 176 176 205 237 281 282 289 161 209 293 279 262 211 219 219 224 217 221 227 228 231 218 207 203 200 200 196 195 196 199 194 189 188 196 209 212 215 224 225 228 220
217 197 176 201 185 212 248 256 265 285 140 217 304 284 257 234 224 219 233 235 226 226 223 226 212 204 202 200 200 199 194 200 199 198 194 193 191 199 208 220 227 232 222 211
250 233 213 190 231 214 264 246 255 243 221 282 208 293 270 253 243 223 222 230 228 216 217 217 211 200 200 204 203 199 195 201 201 204 200 198 195 197 207 216 221 219 214 208
222 210 206 228 239 198 260 316 279 208 216 291 197 259 265 266 262 239 224 221 222 224 214 202 206 204 203 195 199 203 200 200 199 205 206 204 205 213 217 219 210 215 213 213
252 197 219 212 204 194 142 103 91 99 168 250 272 241 286 240 236 266 223 221 215 210 209 202 208 199 201 198 194 196 205 205 206 207 213 215 208 213 222 214 213 215 212 215
235 234 222 194 225 154 193 181 211 209 208 274 355 230 256 280 260 258 260 223 215 208 206 198 194 196 195 194 194 192 200 217 212 215 213 220 222 217 214 222 221 209 207 216
273 237 192 189 215 213 193 220 236 261 255 283 162 242 259 264 310 284 262 247 208 208 204 202 196 196 198 198 193 187 190 216 225 230 222 222 224 220 218 223 231 229 223 226
218 249 199 207 159 200 162 205 267 200 112 264 258 266 278 263 256 264 247 217 200 201 202 200 199 201 200 196 194 190 192 210 228 227 225 223 223 220 221 223 231 236 238 233
211 268 294 127 148 78 222 146 193 222 242 267 230 272 258 279 285 266 225 223 209 202 197 202 198 202 204 201 196 196 197 215 219 218 220 222 224 223 226 228 233 234 238 241
202 228 227 214 202 203 148 203 195 184 239 264 267 259 228 258 289 257 235 212 206 198 196 198 201 200 201 200 195 200 209 214 216 215 219 219 223 223 224 228 234 237 237 240
207 218 247 242 197 182 205 237 201 245 216 244 278 263 223 262 274 225 218 214 211 199 194 196 197 198 198 201 196 203 209 215 220 220 221 223 222 223 226 229 230 235 236 238
168 219 238 264 152 132 217 197 211 227 245 213 241 264 172 241 237 229 212 196 200 181 179 187 190 193 194 200 205 208 211 217 219 218 221 226 224 223 225 226 230 233 237 240
177 192 222 244 265 132 212 223 202 212 233 233 233 261 263 254 217 198 201 195 174 194 184 179 184 187 196 199 202 207 213 212 212 212 217 223 222 222 224 227 226 228 238 236
221 239 224 250 257 262 264 264 212 208 227 220 249 225 253 256 242 204 186 185 171 185 188 188 187 190 195 198 203 210 219 217 212 212 217 226 230 228 228 232 234 234 235 233
13 259 245 254 260 232 231 239 243 240 237 244 241 231 250 231 155 179 189 183 188 186 183 183 185 177 183 187 186 186 200 211 216 218 224 229 229 228 231 231 230 228 231 235
300 278 231 254 263 256 242 232 214 233 228 217 208 216 193 209 217 195 195 200 196 187 175 171 168 163 159 155 150 149 151 172 196 212 221 228 235 235 233 233 226 229 229 225
258 271 253 266 242 246 270 254 217 215 236 207 222 218 213 234 246 199 198 197 202 190 182 173 164 154 152 144 136 135 143 145 157 164 175 202 219 231 233 230 232 236 234 234
219 242 255 245 235 265 280 211 225 191 232 231 223 227 219 238 289 257 202 212 208 192 180 169 158 151 147 136 133 128 121 131 136 135 137 159 186 204 210 225 232 238 236 233
236 233 241 223 245 247 247 164 352 266 227 4 248 247 233 175 220 209 350 225 205 188 172 162 161 148 143 133 134 129 132 137 128 121 110 107 120 120 132 162 187 200 221 240
213 205 225 237 248 250 307 317 294 214 196 5 343 321 309 220 312 0 337 248 211 191 172 157 155 151 144 141 143 138 140 136 134 126 116 110 107 107 114 118 137 148 154 171
242 242 235 232 243 245 17 168 229 58 69 9 7 2 319 314 315 303 297 228 195 179 171 163 152 154 151 152 153 149 147 145 138 128 115 109 103 102 110 136 139 141 153 140
251 273 276 244 264 49 8 45 116 81 350 354 341 351 335 324 322 312 292 227 198 181 173 167 160 154 156 165 165 158 157 154 146 139 131 121 117 116 111 120 128 132 160 168
240 209 242 261 202 210 309 153 173 140 330 326 310 301 319 333 323 313 298 231 193 184 178 169 166 161 159 176 175 166 158 155 150 144 140 141 143 133 125 122 113 124 159 175
275 294 305 278 272 278 202 91 138 318 321 321 322 298 307 325 326 315 307 226 196 183 185 178 171 163 163 175 169 167 159 153 150 146 145 143 143 150 130 121 115 119 129 140
240 251 241 251 245 285 276 300 278 311 308 307 316 325 329 325 312 308 297 221 191 185 180 184 177 162 163 170 169 170 162 154 150 150 157 157 152 152 138 136 115 99 103 98
Height
783 789 793 785 786 792 798 802 801 791 791 797 796 793 788 790 793 791 791 790 790 790 792 797 802 806 811 815 818 821 825 830 833 835 839 843 844 846 849 850 852 854 855 857
790 791 780 785 791 793 797 800 796 789 791 794 794 791 780 783 785 784 783 783 784 786 789 792 797 801 806 811 814 819 823 827 831 835 837 840 843 845 847 849 851 852 854 855
788 783 778 785 791 795 791 795 793 793 794 792 796 790 780 770 774 777 777 775 777 778 783 788 792 796 802 806 809 813 819 824 829 833 836 838 841 843 845 846 848 849 851 853
785 773 782 788 787 787 793 779 785 791 795 804 794 807 785 772 772 772 772 770 769 773 778 782 788 792 796 800 806 810 815 820 826 830 835 836 837 840 841 843 845 846 849 851
781 780 782 786 780 779 784 778 785 787 794 799 797 809 774 779 771 762 760 759 760 763 769 775 781 785 790 797 801 807 812 817 822 826 831 833 835 838 840 841 843 844 846 849
774 770 772 766 768 772 779 785 791 794 799 811 788 795 774 769 755 747 746 748 753 757 762 768 775 782 787 793 798 802 808 813 817 822 826 830 831 834 837 838 839 841 844 847
775 771 762 763 774 777 779 784 804 808 809 804 797 798 769 745 743 741 740 743 745 749 757 762 770 776 781 787 793 797 803 809 813 818 822 825 828 830 832 836 837 838 840 843
783 782 764 755 762 768 777 774 791 816 810 796 800 795 763 740 735 733 732 734 739 745 748 755 761 768 775 780 789 794 798 804 810 813 816 820 823 827 829 831 834 835 837 839
781 777 754 755 753 754 778 785 763 786 806 804 781 769 745 734 738 734 731 734 738 739 743 748 756 762 768 775 782 787 791 797 802 805 810 814 818 821 824 827 829 832 833 835
760 780 751 752 751 760 759 761 780 785 803 806 786 785 767 739 732 732 735 733 733 737 741 745 751 757 764 770 777 784 786 786 794 798 803 808 812 815 819 822 824 827 830 832
749 764 760 752 757 754 769 770 775 769 776 786 791 773 737 735 732 734 729 730 731 733 737 742 747 752 760 767 772 777 782 786 790 793 796 800 805 809 813 817 819 822 825 827
748 753 765 755 745 742 748 751 756 769 784 783 779 765 728 730 729 728 727 727 729 730 734 739 745 751 756 762 767 771 776 780 784 788 792 796 800 804 808 810 813 816 819 822
748 756 768 755 754 754 751 747 745 751 762 771 772 755 726 728 729 726 724 726 732 733 736 738 743 749 754 758 763 767 772 776 780 784 788 792 795 799 801 804 806 809 812 815
740 746 750 755 743 743 752 750 745 742 757 750 753 738 725 719 725 723 725 725 729 733 735 737 741 745 750 754 758 763 767 770 774 778 782 785 788 791 795 798 800 802 804 807
742 749 745 737 737 739 730 733 744 746 733 748 731 744 721 712 716 717 718 723 727 731 734 735 737 743 747 751 755 759 762 766 770 772 775 778 782 785 787 790 792 795 797 799
746 749 749 744 728 735 738 727 734 738 731 732 733 733 704 707 715 717 717 720 724 727 731 734 737 739 744 749 752 755 759 761 766 768 770 773 777 778 780 783 786 788 791 793
753 749 753 750 735 734 744 724 721 725 721 717 732 713 704 710 711 713 714 719 718 720 724 729 735 740 744 747 750 754 757 761 764 766 767 769 771 773 776 778 780 783 785 788
756 757 754 748 749 755 713 703 701 713 711 710 706 703 701 699 700 703 704 707 715 719 723 727 731 738 744 747 750 754 758 760 763 764 765 767 768 770 771 773 775 778 781 783
747 750 753 754 744 729 714 714 715 715 710 703 702 697 701 704 702 696 700 702 704 708 717 726 731 736 740 743 748 753 757 761 763 763 765 766 767 768 769 770 772 775 776 778
734 746 751 746 750 749 717 713 713 710 716 712 707 700 703 704 712 700 703 702 702 705 713 720 729 734 739 741 747 752 757 762 764 764 765 766 768 768 768 770 772 773 775 776
742 746 751 742 742 724 715 715 714 729 715 713 711 710 708 706 701 709 704 702 704 707 710 717 725 731 736 741 747 752 758 762 765 765 766 768 768 768 769 770 772 773 775 777
740 740 735 735 740 740 718 717 719 719 718 716 714 712 713 711 706 705 704 702 704 707 712 715 720 729 736 741 747 752 755 760 763 765 766 768 768 770 772 773 773 774 776 778
746 729 732 730 719 720 719 718 719 718 719 718 716 712 712 710 707 704 702 701 702 706 711 716 719 727 736 742 746 750 754 757 759 763 765 768 770 772 773 773 774 775 776 777
736 739 735 733 720 722 720 717 718 719 719 717 714 714 711 709 706 701 698 698 700 705 709 712 719 724 732 742 745 749 751 754 759 762 765 768 770 771 773 773 774 775 776 777
739 739 733 730 723 721 719 718 716 718 718 718 715 715 711 709 705 702 698 697 700 703 710 712 715 721 729 739 743 747 748 752 756 760 765 767 768 770 771 772 774 775 775 776
733 732 732 724 720 721 717 716 717 717 716 716 715 714 710 709 707 701 697 697 700 703 708 714 718 721 729 737 742 747 747 749 753 758 762 765 767 769 771 773 775 775 776 777